Location: Recife
(8.0585°S, 34.8848°W)
Time: 21:17:55
(UTC-03:00)

A-11 Canister half - Pass Details

Date: 18 April 2026
Orbit: 1523 x 1684 km, 47.3° (Epoch: 16 May)

Event Time Altitude Azimuth Distance (km) Brightness Sun altitude
Rises 07:13:10 0° 348° (NNW) 4,852 11.7 26.0°
Reaches altitude 10° 07:17:14 10° 2° (N) 3,842 11.4 27.0°
Maximum altitude 07:24:30 24° 51° (NE) 2,873 12.1 28.7°
Drops below altitude 10° 07:31:35 10° 100° (E) 3,757 12.2 30.4°
Sets 07:35:26 0° 113° (ESE) 4,721 12.2 31.3°
